DateTimeUTC,F1_A11,F1_S11,BsB_S11,BsG_S11,BsR_S11,BbsB_S11,BbsG_S11,BbsR_S11,BaB_A11,BaG_A11,BaR_A11,Tu_S11,T_S11,Uu_S11,U_S11,P_S11,T1_A11
2021-03-26T15:00:00Z,00000200,21000000,,,,,,,0000.25,-000.14,0000.22,16.6,24.0,,00.0,0630.3,30.9
2021-03-26T15:01:00Z,00000200,21000000,,,,,,,-000.11,0000.09,-000.13,16.6,24.0,,00.0,0630.3,30.8
2021-03-26T15:02:00Z,00000200,21000000,,,,,,,-000.09,-000.29,0000.13,16.6,24.0,,00.0,0630.3,30.9
2021-03-26T15:03:00Z,00000200,61000000,,,,,,,0002.85,0002.76,0001.63,16.6,24.0,,00.0,0630.3,30.9
2021-03-26T15:04:00Z,00000200,41000000,0006.42,0004.00,0002.20,0000.47,0000.82,0000.40,0003.97,0003.65,0003.50,16.8,23.8,,00.0,0631.3,30.9
2021-03-26T15:05:00Z,00000200,01000000,0006.06,0003.99,0002.32,0000.82,0000.83,0000.30,0003.92,0003.84,0002.40,16.9,23.8,,00.0,0631.4,30.9
2021-03-26T15:06:00Z,00000200,01000000,0006.36,0004.00,0001.89,0000.72,0000.44,0000.10,0004.14,0003.69,0003.01,16.9,23.8,,00.0,0631.3,30.9
2021-03-26T15:07:00Z,00000200,01000000,0005.79,0004.01,0002.14,0001.24,0000.59,0000.59,0003.81,0003.48,0002.99,16.9,23.8,,00.0,0631.3,30.9
2021-03-26T15:08:00Z,00000200,01000000,0005.73,0004.00,0002.06,0000.86,0000.89,0000.26,0004.10,0004.02,0002.65,16.8,23.8,,00.0,0631.3,30.9
2021-03-26T15:09:00Z,00000200,01000000,0006.45,0004.06,0002.47,0001.01,0000.73,0000.28,0003.72,0003.50,0002.54,16.7,23.7,,00.0,0631.3,30.9
2021-03-26T15:10:00Z,00000200,01000000,0006.01,0004.13,0002.40,0000.93,0000.92,0000.64,0004.19,0003.20,0002.89,16.7,23.7,,00.0,0631.2,30.8
2021-03-26T15:11:00Z,00000200,01000000,0005.92,0004.31,0002.12,0000.45,0000.61,0000.49,0003.77,0004.26,0003.36,16.6,23.7,,00.0,0631.2,30.8
2021-03-26T15:12:00Z,00000200,01000000,0006.44,0003.78,0002.43,0000.73,0000.73,0000.29,0004.38,0003.69,0003.00,16.5,23.6,,00.0,0631.2,30.8
2021-03-26T15:13:00Z,00000200,01000000,0005.87,0003.95,0002.35,0001.07,0000.78,0000.35,0004.08,0003.67,0002.78,16.5,23.6,,00.0,0631.2,30.8
2021-03-26T15:14:00Z,00000200,01000000,0006.15,0003.92,0002.48,0000.56,0000.58,0000.53,0004.21,0003.99,0003.17,16.4,23.5,,00.0,0631.2,30.8
2021-03-26T15:15:00Z,00000200,01000000,0005.80,0003.75,0002.37,0000.62,0000.60,0000.36,0004.24,0003.59,0003.01,16.4,23.5,,00.0,0631.2,30.8
2021-03-26T15:16:00Z,00000200,01000000,0005.44,0004.30,0002.42,0000.56,0000.69,0000.62,0004.03,0003.79,0002.87,16.3,23.4,,00.0,0631.2,30.8
2021-03-26T15:17:00Z,00000200,01000000,0006.24,0004.05,0002.33,0000.22,0000.70,0000.51,0004.35,0004.00,0003.35,16.3,23.4,,00.0,0631.2,30.8
2021-03-26T15:18:00Z,00000200,01000000,0005.79,0003.99,0002.15,0000.49,0000.67,0000.38,0003.77,0003.79,0002.55,16.4,23.4,,00.0,0631.2,30.8
2021-03-26T15:19:00Z,00000200,01000000,0005.83,0003.96,0002.25,0000.52,0000.55,0000.36,0004.41,0003.83,0003.24,16.4,23.5,,00.0,0631.2,30.9
2021-03-26T15:20:00Z,00000200,01000000,0006.71,0003.96,0002.46,0001.15,0000.89,0000.46,0003.71,0003.64,0002.88,16.5,23.5,,00.0,0631.2,30.9
2021-03-26T15:21:00Z,00000200,01000000,0006.40,0004.23,0002.06,0000.57,0000.71,0000.39,0003.94,0003.82,0002.73,16.6,23.5,,00.0,0631.2,30.9
2021-03-26T15:22:00Z,00000200,01000000,0006.58,0003.73,0002.24,0000.54,0000.73,0000.63,0003.89,0003.72,0002.85,16.6,23.5,,00.0,0631.2,30.9
2021-03-26T15:23:00Z,00000200,01000000,0006.07,0004.19,0002.46,0000.54,0000.46,0000.54,0003.70,0003.16,0002.93,16.7,23.6,,00.0,0631.2,30.9
2021-03-26T15:24:00Z,00000200,01000000,0005.36,0004.08,0002.39,0001.07,0000.47,0000.33,0003.91,0003.29,0002.27,16.7,23.6,,00.0,0631.2,30.9
2021-03-26T15:25:00Z,00000200,01000000,0006.27,0004.37,0002.29,0001.09,0000.61,0000.36,0003.83,0003.77,0003.18,16.8,23.6,,00.0,0631.2,30.9
2021-03-26T15:26:00Z,00000200,01000000,0006.15,0003.81,0002.27,0000.68,0000.71,0000.39,0003.72,0003.38,0002.43,16.7,23.6,,00.0,0631.2,30.9
2021-03-26T15:27:00Z,00000200,01000000,0006.00,0003.98,0002.35,0000.31,0000.86,0000.45,0003.57,0003.73,0002.69,16.7,23.6,,00.0,0631.2,30.9
2021-03-26T15:28:00Z,00000200,01000000,0006.51,0003.56,0002.44,0000.65,0000.76,0000.49,0004.49,0003.27,0002.94,16.6,23.5,,00.0,0631.2,30.8
2021-03-26T15:29:00Z,00000200,01000000,0006.40,0003.76,0002.14,0000.75,0000.50,0000.42,0003.78,0003.98,0002.94,16.5,23.4,,00.0,0631.2,30.8
2021-03-26T15:30:00Z,00000200,01000000,0006.21,0004.08,0002.30,0000.85,0000.73,0000.28,0003.78,0003.57,0002.82,16.4,23.4,,00.0,0631.1,30.8
2021-03-26T15:31:00Z,00000200,01000000,0006.57,0004.22,0002.04,0000.43,0000.82,0000.35,0004.45,0004.27,0003.06,16.4,23.4,,00.0,0631.1,30.8
2021-03-26T15:32:00Z,00000200,01000000,0006.14,0004.08,0002.25,0000.18,0000.67,0000.52,0004.34,0003.54,0003.03,16.4,23.4,,00.0,0631.1,30.8
2021-03-26T15:33:00Z,00000200,01000000,0006.49,0003.53,0002.36,0000.85,0000.64,0000.23,0003.94,0003.49,0003.01,16.5,23.4,,00.0,0631.1,30.9
2021-03-26T15:34:00Z,00000200,01000000,0006.07,0003.88,0002.13,0000.77,0000.72,0000.32,0003.92,0004.04,0002.81,16.5,23.4,,00.0,0631.2,30.9
2021-03-26T15:35:00Z,00000200,01000000,0005.64,0004.38,0002.19,0000.60,0000.75,0000.48,0003.99,0003.58,0003.10,16.6,23.4,,00.0,0631.2,30.9
2021-03-26T15:36:00Z,00000200,01000000,0005.37,0003.82,0002.17,0001.01,0000.56,0000.44,0004.23,0003.71,0003.16,16.6,23.5,,00.0,0631.2,30.9
2021-03-26T15:37:00Z,00000200,01000000,0005.59,0004.30,0002.44,0000.78,0000.60,0000.49,0003.88,0003.86,0002.90,16.7,23.5,,00.0,0631.2,30.9
2021-03-26T15:38:00Z,00000200,01000000,0005.98,0003.90,0002.47,0000.58,0000.69,0000.70,0003.96,0003.59,0002.67,16.7,23.5,,00.0,0631.2,30.9
2021-03-26T15:39:00Z,00000200,01000000,0006.54,0004.12,0002.60,0000.93,0000.74,0000.58,0004.31,0004.15,0003.02,16.8,23.5,,00.0,0631.3,30.9
2021-03-26T15:40:00Z,00000200,01000000,0005.63,0003.89,0002.34,0000.41,0000.91,0000.44,0003.75,0003.43,0002.85,16.8,23.6,,00.0,0631.3,30.9
2021-03-26T15:41:00Z,00000200,01000000,0005.59,0003.94,0002.09,0000.85,0000.84,0000.16,0004.37,0003.50,0002.76,16.9,23.6,,00.0,0631.3,30.9
2021-03-26T15:42:00Z,00000200,01000000,0006.26,0003.99,0002.22,0000.68,0000.71,0000.45,0003.61,0003.89,0002.94,16.9,23.6,,00.0,0631.3,30.9
2021-03-26T15:43:00Z,00000200,01000000,0006.14,0003.97,0002.04,0000.70,0000.75,0000.25,0003.88,0003.74,0003.13,17.0,23.6,,00.0,0631.3,31.0
2021-03-26T15:44:00Z,00000200,01000000,0006.31,0003.86,0002.32,0001.26,0000.76,0000.54,0003.89,0003.35,0002.80,17.0,23.7,,00.0,0631.4,31.0
2021-03-26T15:45:00Z,00000200,01000000,0005.85,0003.95,0002.30,0000.22,0000.79,0000.63,0003.89,0003.97,0002.63,17.1,23.7,,00.0,0631.3,31.0
2021-03-26T15:46:00Z,00000200,01000000,0005.87,0004.10,0002.24,0001.04,0000.72,0000.46,0004.12,0003.44,0003.18,17.1,23.7,,00.0,0631.4,30.9
2021-03-26T15:47:00Z,00000200,01000000,0005.37,0004.00,0002.29,0000.64,0000.54,0000.74,0004.19,0004.01,0002.78,17.1,23.7,,00.0,0631.3,30.9
2021-03-26T15:48:00Z,00000200,01000000,0005.58,0004.15,0002.35,0001.10,0000.54,0000.64,0003.98,0003.84,0002.90,17.1,23.7,,00.0,0631.3,30.9
2021-03-26T15:49:00Z,00000200,01000000,0005.89,0003.95,0002.34,0000.77,0000.71,0000.50,0004.05,0003.48,0002.71,17.1,23.7,,00.0,0631.3,30.9
2021-03-26T15:50:00Z,00000200,01000000,0006.30,0004.08,0002.16,0000.68,0000.58,0000.16,0003.66,0003.61,0003.07,17.1,23.7,,00.0,0631.4,30.9
2021-03-26T15:51:00Z,00000200,01000000,0005.75,0004.00,0002.29,0000.46,0000.68,0000.14,0003.90,0003.80,0002.97,17.2,23.8,,00.0,0631.4,31.0
2021-03-26T15:52:00Z,00000200,01000000,0006.05,0004.24,0002.14,0000.13,0000.78,0000.47,0004.08,0003.36,0002.52,17.2,23.8,,00.0,0631.4,31.0
2021-03-26T15:53:00Z,00000200,01000000,0006.12,0003.74,0002.10,0000.54,0000.82,0000.35,0003.49,0003.39,0003.12,17.3,23.8,,00.0,0631.4,31.0
2021-03-26T15:54:00Z,00000200,01000000,0006.37,0003.94,0002.56,0000.92,0000.45,0000.68,0003.96,0003.49,0002.63,17.3,23.9,,00.0,0631.4,31.0
2021-03-26T15:55:00Z,00000200,01000000,0005.78,0003.83,0001.80,0000.96,0000.62,0000.09,0003.99,0003.91,0002.65,17.3,23.9,,00.0,0631.4,31.0
2021-03-26T15:56:00Z,00000200,01000000,0006.27,0004.09,0002.28,0000.60,0000.70,0000.57,0004.17,0003.71,0003.14,17.4,23.9,,00.0,0631.4,31.0
2021-03-26T15:57:00Z,00000200,41000000,,,,,,,0001.60,0001.68,0001.24,17.4,24.0,,00.0,0631.3,30.9
2021-03-26T15:58:00Z,00000200,61000000,,,,,,,-000.10,-000.44,-000.38,17.0,24.0,,00.0,0630.4,30.9
2021-03-26T15:59:00Z,00000200,21000000,,,,,,,-000.24,-000.20,0000.04,16.9,24.1,,00.0,0630.4,30.9
